THOR ABLESTAR DEB, 225

Orbit data source: Space-Track

THOR ABLESTAR DEB, 225 is space debris in LEO originally from a launch on Thu, 29 Jun 1961 UTC launched from the Air Force Eastern Test Range (AFETR). Debris objects in space refer to the collection of defunct objects orbiting the Earth. Examples of debris include non-operational satellites, rocket bodies, and fragments generated from explosions, collisions, or faulty payload assembly.

Loading next visibility...
Identifier
225, 1961-015BM
Orbit
LEO
Country
Flag of USUS
Related business
Manufacturer
Unknown
Mission
Spacecraft
Bus & Motor
Unknown
Mass
Unknown
Launch date (UTC)
1961-06-29 (64 years ago)
Launch vehicle
Unknown
Launch site
Air Force Eastern Test Range (AFETR)
Object type
Payload
Rocket body
Debris
Shape & HBR
Unknown
Radar Cross Section
Small (<0.1 m²)

Expand to show TLE details & history
Last TLE update: 1 day ago

TLE from 1 day ago
0 THOR ABLESTAR DEB
1 00225U 61015BM  25260.02415068  .00001261  00000-0  42802-3 0  9992
2 00225  66.7948 248.6009 0093480  60.7017 300.3387 14.37495444318455
Epoch: 2025-09-17T00:34Z
TLE epoch observation values (Epoch: 2025-09-17T00:34:46.618Z)
Latitude
-0.00006°
Longitude
-116.29941°
Altitude
735.635 km
Speed
7.505 km/s
True Right ascension
16h 34m 24s
True Declination
0° 00' 00"
Sunlit
Object was in daylight at epoch
Visualization orbit readout
Latitude
Unknown
Longitude
Unknown
Altitude
Unknown
Speed
Unknown
Apparent Right ascension
Unknown
Apparent Declination
Unknown
Sunlit
N/A
Visualization observer readout
Local Sidereal Time
19:15:11
Azimuth
Unknown
Elevation
Unknown
Doppler factor
Unknown
Orbital elements
Apogee altitude
831.919 km
Perigee altitude
698.368 km
Semi-major axis
7,143.28 km
Eccentricity
0.00935
Inclination
66.7948°
RAAN
248.6009°
Arg. of periapsis
60.7017°
True anomaly
299.40875°
Mean anomaly
300.3387°
Eccentric anomaly
299.87427°
Mean motion
3.59498 °/min
Orbital period
100.14 mins
BSTAR
0.00042802
Loading maneuver chart data...
Computing Atmospheric mass density...

Documentation

Showing up to 5 results
|